[[{"header":{"parameterUnit":"m.s-1","parameterCategory":1,"la1":30.2991,"la2":30.254,"lo1":-89.0895,"lo2":-89.0444,"dy":0.0017,"dx":0.0017,"nx":28,"ny":28,"refTime":"2025-09-16T21:00:00:Z","depth":0,"parameterNumber":2,"parameterNumberName":"U-component_of_WINDS"},"data":[0,0,0,0,0,0,0,0,0,0,0,0,0,0,0,0,0,0,0,0,0,0,0,0,0,0,0,0,0,0,0,0,0,0,0,0,0,0,0,0,0,0,0,0,0,0,0,0,0,0,0,0,0,0,0,0,0,0,1.4635,1.4635,0,1.4628,1.4628,1.4628,1.4595,1.4594,1.4593,1.4592,1.4584,1.4585,1.4585,0,0,0,0,0,0,0,0,0,0,0,0,0,1.4615,1.4616,1.4635,1.4635,1.4635,1.4628,1.4628,1.4628,1.4595,1.4594,1.4593,1.4592,1.4584,1.4585,1.4585,0,0,0,0,0,0,0,0,0,0,0,0,0,1.4618,1.4616,1.4635,1.4617,1.4616,1.4628,1.4628,1.4628,1.4595,1.4594,1.4593,1.4592,1.4584,1.4585,1.4585,1.4614,0,0,1.4588,1.4588,0,0,0,0,0,0,0,0,1.4618,1.4618,1.462,1.4619,1.4617,1.4611,1.4618,1.4623,1.4595,1.4603,1.4592,1.4591,1.4594,1.4594,1.4595,1.4613,1.4613,1.4588,1.4588,1.4589,1.4589,0,0,0,0,0,0,0,1.4617,1.4618,1.4632,1.462,1.4618,1.4609,1.4608,1.4619,1.4605,1.4602,1.46,1.4599,1.4593,1.4595,1.4595,1.4613,1.4588,1.4588,1.4589,1.4589,1.4651,1.4652,0,0,0,0,0,0,1.462,1.4619,1.4632,1.4632,1.4614,1.461,1.4609,1.4614,1.4605,1.4602,1.4601,1.4598,1.4594,1.4594,1.4594,1.4625,1.4589,1.4589,1.459,1.465,1.4651,1.4652,0,0,0,0,0,0,1.462,1.4622,1.4633,1.4625,1.4625,1.4612,1.4618,1.4615,1.4616,1.4604,1.4601,1.4605,1.4593,1.4593,1.4609,1.4624,1.459,1.459,1.4648,1.465,1.4652,1.4687,0,0,0,0,0,0,1.4619,1.4622,1.4633,1.4625,1.4626,1.4648,1.4619,1.4615,1.4618,1.4614,1.4607,1.4605,1.4592,1.4608,1.4609,1.4624,1.4591,1.4647,1.4649,1.4651,1.4684,1.469,1.4694,0,0,0,0,0,1.4619,1.4644,1.4634,1.4636,1.464,1.4649,1.4649,1.4635,1.4619,1.463,1.4621,1.4605,1.4622,1.4609,1.4611,1.4627,1.4646,1.4648,1.4651,1.4682,1.4689,1.4694,0,0,0,0,0,0,1.4654,1.4642,1.4632,1.4655,1.4653,1.4643,1.4657,1.4643,1.4645,1.4641,1.4623,1.4621,1.4639,1.4634,1.462,1.4652,1.4631,1.4634,1.4654,1.466,1.4665,1.4665,1.4592,0,0,0,0,0,1.4665,1.4674,1.4663,1.4684,1.4684,1.4671,1.4674,1.4663,1.466,1.4659,1.4652,1.4649,1.4653,1.4657,1.4661,1.4684,1.468,1.4695,1.47,1.4704,1.4707,1.4716,1.4721,1.4661,1.4661,1.4661,0,0,1.4686,1.4681,1.4688,1.4691,1.4689,1.4697,1.467,1.4681,1.4686,1.466,1.4674,1.4668,1.4664,1.4683,1.469,1.4679,1.4723,1.4708,1.4711,1.4711,1.4719,1.4725,1.473,1.4663,1.4662,1.4662,0,0,1.473,1.4728,1.4744,1.4742,1.4738,1.4729,1.4733,1.4725,1.472,1.4733,1.4713,1.4719,1.4728,1.4725,1.4724,1.4765,1.4748,1.4766,1.4792,1.4801,1.4806,1.481,1.4822,1.4826,1.4769,1.4769,1.4769,0,1.4757,1.477,1.4754,1.4765,1.4766,1.4744,1.4759,1.4757,1.4755,1.4755,1.4743,1.4752,1.4748,1.4764,1.4774,1.4775,1.4777,1.4767,1.4806,1.481,1.4814,1.4825,1.483,1.4771,1.4771,1.4771,1.4771,0,1.4802,1.4811,1.4824,1.4822,1.4825,1.4838,1.4823,1.4828,1.4816,1.4807,1.482,1.4813,1.4814,1.4818,1.4807,1.4832,1.4824,1.481,1.4788,1.4822,1.4832,1.4836,1.4774,1.4773,1.4773,1.4772,0,0,1.4868,1.4856,1.4861,1.4858,1.4851,1.4857,1.4869,1.487,1.4872,1.4871,1.4879,1.4886,1.4872,1.4871,1.486,1.4868,1.4897,1.4852,1.4851,1.4858,1.4921,1.493,1.4936,1.4887,1.4887,1.4888,1.492,0,1.4907,1.4926,1.4912,1.4933,1.4939,1.4917,1.4926,1.4922,1.4914,1.4918,1.4908,1.4913,1.4895,1.4894,1.4902,1.4892,1.4909,1.4889,1.4891,1.4892,1.4891,1.4941,1.4952,1.4983,1.4924,1.4925,1.4925,0,1.4956,1.4956,1.4978,1.4967,1.4969,1.4978,1.4976,1.4981,1.4975,1.4968,1.4967,1.4952,1.4961,1.4941,1.4951,1.4938,1.4938,1.4933,1.4934,1.4932,1.4909,1.4938,1.4992,1.4996,1.4932,1.4931,1.4931,0,1.4998,1.5004,1.5017,1.5016,1.5005,1.5011,1.5007,1.5,1.5001,1.4999,1.4999,1.4999,1.4998,1.4997,1.4982,1.4969,1.4993,1.4972,1.4986,1.4986,1.4991,1.499,1.5043,1.4994,1.4994,1.4994,1.4994,0,1.5043,1.5056,1.5035,1.5043,1.5057,1.504,1.5053,1.5047,1.504,1.5045,1.5026,1.5031,1.5012,1.5014,1.5002,1.501,1.5011,1.5004,1.5001,1.5005,1.5005,1.5003,1.5,1.4995,1.4995,1.4995,1.4995,0,1.5092,1.5079,1.5091,1.5079,1.5077,1.5087,1.5076,1.5082,1.5072,1.5078,1.5079,1.5063,1.5065,1.505,1.5049,1.504,1.5053,1.5047,1.5055,1.5052,1.5066,1.5064,1.5118,1.5123,1.5073,1.5074,1.5074,0,1.512,1.513,1.5119,1.512,1.5117,1.5121,1.5121,1.5104,1.5105,1.5098,1.5104,1.5104,1.5102,1.5105,1.5093,1.5091,1.5083,1.5102,1.5083,1.5086,1.5081,1.508,1.5079,1.5106,1.5107,1.5107,1.5107,0,1.5171,1.5163,1.5165,1.5163,1.5164,1.5162,1.5159,1.5161,1.5143,1.5144,1.5145,1.5144,1.5142,1.5141,1.5137,1.5131,1.5115,1.5114,1.5116,1.512,1.5123,1.5119,1.5064,1.5112,1.5112,1.5111,1.5111,1.5111,1.5209,1.5215,1.5208,1.5209,1.5205,1.5202,1.5206,1.5196,1.5197,1.5194,1.5184,1.5186,1.5178,1.517,1.5166,1.5166,1.5157,1.5161,1.5162,1.5163,1.5164,1.5125,1.5166,1.5165,1.5165,1.5165,1.5165,0,1.5256,1.525,1.5252,1.5247,1.5248,1.5234,1.5229,1.523,1.5232,1.5226,1.5225,1.5225,1.5224,1.5211,1.5208,1.521,1.5203,1.521,1.5208,1.5207,1.5174,1.5171,1.5216,1.5216,1.5216,1.5216,1.5216,1.5216,1.5281,1.529,1.5282,1.5288,1.5281,1.5283,1.5281,1.5278,1.5273,1.5273,1.5272,1.5264,1.5255,1.525,1.5248,1.5244,1.5243,1.5252,1.5245,1.5214,1.5209,1.5205,1.5202,1.5252,1.5252,1.5277,1.5278,1.5278]},{"header":{"parameterUnit":"m.s-1","parameterCategory":1,"la1":30.2991,"la2":30.254,"lo1":-89.0895,"lo2":-89.0444,"dy":0.0017,"dx":0.0017,"nx":28,"ny":28,"refTime":"2025-09-16T21:00:00:Z","depth":0,"parameterNumber":3,"parameterNumberName":"V-component_of_WINDS"},"data":[0,0,0,0,0,0,0,0,0,0,0,0,0,0,0,0,0,0,0,0,0,0,0,0,0,0,0,0,0,0,0,0,0,0,0,0,0,0,0,0,0,0,0,0,0,0,0,0,0,0,0,0,0,0,0,0,0,0,-0.8563,-0.8563,0,-0.8556,-0.8556,-0.8556,-0.8558,-0.8558,-0.8558,-0.8559,-0.855,-0.855,-0.8549,0,0,0,0,0,0,0,0,0,0,0,0,0,-0.858,-0.8579,-0.8563,-0.8563,-0.8563,-0.8556,-0.8556,-0.8556,-0.8558,-0.8558,-0.8558,-0.8559,-0.855,-0.855,-0.8549,0,0,0,0,0,0,0,0,0,0,0,0,0,-0.8572,-0.8579,-0.8563,-0.8564,-0.8564,-0.8556,-0.8556,-0.8556,-0.8558,-0.8558,-0.8559,-0.8559,-0.855,-0.855,-0.8549,-0.8541,0,0,-0.8547,-0.8547,0,0,0,0,0,0,0,0,-0.8573,-0.8572,-0.8564,-0.8564,-0.8563,-0.8558,-0.8558,-0.8551,-0.8558,-0.856,-0.8559,-0.8559,-0.8553,-0.8552,-0.855,-0.854,-0.854,-0.8547,-0.8547,-0.8547,-0.8547,0,0,0,0,0,0,0,-0.8573,-0.8572,-0.856,-0.8564,-0.8563,-0.8564,-0.8563,-0.8557,-0.8555,-0.856,-0.856,-0.8559,-0.8553,-0.855,-0.855,-0.854,-0.8547,-0.8547,-0.8547,-0.8546,-0.8524,-0.8524,0,0,0,0,0,0,-0.8574,-0.8573,-0.8561,-0.856,-0.8569,-0.8563,-0.8563,-0.856,-0.8555,-0.8555,-0.8559,-0.8559,-0.8551,-0.855,-0.8549,-0.854,-0.8547,-0.8546,-0.8546,-0.8524,-0.8524,-0.8524,0,0,0,0,0,0,-0.8574,-0.8573,-0.8561,-0.8566,-0.8565,-0.8563,-0.856,-0.8559,-0.8557,-0.8554,-0.8554,-0.8557,-0.8551,-0.855,-0.8543,-0.8539,-0.8546,-0.8546,-0.8525,-0.8524,-0.8524,-0.852,0,0,0,0,0,0,-0.8575,-0.8573,-0.857,-0.8566,-0.8565,-0.8555,-0.8559,-0.8559,-0.8556,-0.8557,-0.8553,-0.8552,-0.8551,-0.8544,-0.8543,-0.8539,-0.8545,-0.8525,-0.8524,-0.8524,-0.852,-0.8519,-0.8518,0,0,0,0,0,-0.8575,-0.8568,-0.857,-0.8568,-0.8561,-0.8555,-0.8554,-0.8553,-0.8556,-0.8553,-0.8551,-0.8552,-0.854,-0.8543,-0.8542,-0.8537,-0.8525,-0.8525,-0.8524,-0.852,-0.8519,-0.8518,0,0,0,0,0,0,-0.8571,-0.8568,-0.8569,-0.8561,-0.8558,-0.8555,-0.8551,-0.8552,-0.8548,-0.8548,-0.8548,-0.8547,-0.854,-0.8538,-0.8542,-0.853,-0.8533,-0.8532,-0.8531,-0.853,-0.8529,-0.8529,-0.8545,0,0,0,0,0,-0.8569,-0.8565,-0.8562,-0.8555,-0.8554,-0.8553,-0.855,-0.855,-0.8547,-0.8546,-0.8543,-0.854,-0.8536,-0.8533,-0.8528,-0.852,-0.8519,-0.8517,-0.8516,-0.8515,-0.8514,-0.851,-0.8509,-0.8522,-0.8522,-0.8522,0,0,-0.8565,-0.8563,-0.856,-0.8554,-0.8552,-0.8548,-0.8552,-0.8546,-0.8543,-0.8545,-0.8538,-0.8537,-0.8533,-0.8525,-0.8522,-0.8524,-0.851,-0.8514,-0.8514,-0.8513,-0.8509,-0.8508,-0.8507,-0.8521,-0.8522,-0.8522,0,0,-0.8555,-0.8553,-0.8547,-0.8545,-0.8542,-0.8542,-0.854,-0.8537,-0.8536,-0.853,-0.8531,-0.8527,-0.8519,-0.8517,-0.8515,-0.8505,-0.8506,-0.8504,-0.8499,-0.8495,-0.8494,-0.8493,-0.849,-0.8489,-0.8503,-0.8503,-0.8503,0,-0.855,-0.8544,-0.8544,-0.8539,-0.8537,-0.8539,-0.8533,-0.8531,-0.8526,-0.8525,-0.8527,-0.8518,-0.8515,-0.8508,-0.8505,-0.8504,-0.8502,-0.8504,-0.8494,-0.8494,-0.8493,-0.849,-0.8488,-0.8503,-0.8503,-0.8503,-0.8503,0,-0.8538,-0.8533,-0.8529,-0.8525,-0.8523,-0.8517,-0.8517,-0.8514,-0.8515,-0.8514,-0.8508,-0.8505,-0.8501,-0.8499,-0.8499,-0.8491,-0.8493,-0.8495,-0.8498,-0.8491,-0.8488,-0.8487,-0.8503,-0.8503,-0.8503,-0.8503,0,0,-0.8524,-0.8521,-0.852,-0.8518,-0.8516,-0.8512,-0.8507,-0.8503,-0.8501,-0.8498,-0.8494,-0.8488,-0.849,-0.8487,-0.8487,-0.8484,-0.8477,-0.8487,-0.8487,-0.8485,-0.8469,-0.8467,-0.8466,-0.8478,-0.8478,-0.8478,-0.8469,0,-0.8514,-0.8505,-0.8506,-0.8498,-0.8494,-0.8497,-0.8492,-0.849,-0.849,-0.8486,-0.8486,-0.8481,-0.8484,-0.8483,-0.848,-0.8479,-0.8474,-0.8479,-0.8474,-0.8474,-0.8475,-0.8464,-0.8462,-0.8454,-0.8468,-0.8468,-0.8468,0,-0.8501,-0.8498,-0.849,-0.8488,-0.8487,-0.8483,-0.848,-0.8476,-0.8474,-0.8474,-0.8472,-0.8473,-0.8468,-0.8472,-0.8466,-0.8469,-0.8468,-0.8467,-0.8467,-0.8466,-0.847,-0.8463,-0.8451,-0.845,-0.8466,-0.8466,-0.8466,0,-0.8492,-0.8486,-0.848,-0.8479,-0.8477,-0.8474,-0.8474,-0.8472,-0.847,-0.8467,-0.8466,-0.8462,-0.846,-0.8458,-0.8458,-0.8461,-0.8452,-0.8456,-0.8452,-0.8452,-0.8449,-0.8449,-0.8437,-0.8448,-0.8448,-0.8448,-0.8448,0,-0.848,-0.8475,-0.8476,-0.8473,-0.8467,-0.8468,-0.8463,-0.8462,-0.8461,-0.8457,-0.8459,-0.8456,-0.8457,-0.8454,-0.8454,-0.8449,-0.8448,-0.8448,-0.8448,-0.8447,-0.8447,-0.8446,-0.8446,-0.8448,-0.8448,-0.8448,-0.8448,0,-0.8469,-0.8469,-0.8463,-0.8463,-0.8462,-0.8458,-0.8457,-0.8454,-0.8454,-0.845,-0.8449,-0.8449,-0.8445,-0.8446,-0.8442,-0.8442,-0.8435,-0.8436,-0.8436,-0.8436,-0.8432,-0.8432,-0.8418,-0.8416,-0.8429,-0.8429,-0.8429,0,-0.8461,-0.8457,-0.8456,-0.8454,-0.8453,-0.845,-0.8448,-0.845,-0.8447,-0.8445,-0.8443,-0.8439,-0.8437,-0.8431,-0.8431,-0.8428,-0.8428,-0.8424,-0.8428,-0.8428,-0.8428,-0.8428,-0.8428,-0.8422,-0.8422,-0.8422,-0.8422,0,-0.8448,-0.8448,-0.8446,-0.8443,-0.8441,-0.8439,-0.8438,-0.8436,-0.8437,-0.8435,-0.8431,-0.8429,-0.8426,-0.8423,-0.842,-0.8419,-0.8421,-0.8421,-0.842,-0.8419,-0.8419,-0.8419,-0.8434,-0.8421,-0.8421,-0.8421,-0.8421,-0.8421,-0.8438,-0.8435,-0.8434,-0.8431,-0.843,-0.8429,-0.8426,-0.8426,-0.8423,-0.842,-0.8422,-0.8418,-0.8417,-0.8413,-0.8412,-0.841,-0.8411,-0.841,-0.8409,-0.8409,-0.8408,-0.842,-0.8409,-0.8409,-0.8409,-0.8409,-0.8409,0,-0.8424,-0.8424,-0.8422,-0.842,-0.8418,-0.842,-0.8419,-0.8417,-0.8413,-0.8412,-0.841,-0.8406,-0.8404,-0.8404,-0.8401,-0.8399,-0.84,-0.8398,-0.8398,-0.8398,-0.8407,-0.8408,-0.8398,-0.8398,-0.8398,-0.8398,-0.8398,-0.8398,-0.8417,-0.8412,-0.8413,-0.8408,-0.8408,-0.8405,-0.8404,-0.8402,-0.8402,-0.8398,-0.8396,-0.8396,-0.8395,-0.8393,-0.839,-0.8391,-0.8389,-0.8388,-0.8388,-0.8396,-0.8397,-0.8398,-0.8399,-0.8387,-0.8387,-0.8379,-0.8379,-0.8379]}]]